DW6561 Weather Reports


time (UTC)temp
C
wind
direction
speed
KPH
gust
KPH
rain 1hr
cm
rain 24hr
cm
rain mn
cm
humidity
%
barometer
mb
20260906050020 17 183 0.0 0.0 0.00 0.00 0.00 59 1016.4
20260906044516 17 183 0.0 1.6 0.00 0.00 0.00 58 1016.5
20260906043012 17 183 0.0 0.0 0.00 0.00 0.00 58 1016.5
20260906041537 17 183 0.0 0.0 0.00 0.00 0.00 57 1016.5
20260906040015 17 183 0.0 0.0 0.00 0.00 0.00 56 1016.6
20260906034521 18 183 0.0 0.0 0.00 0.00 0.00 55 1016.5
20260906033027 18 183 0.0 3.2 0.00 0.00 0.00 53 1016.4
20260906031537 18 100 0.0 0.0 0.00 0.00 0.00 47 1016.3
20260906030017 19 100 0.0 0.0 0.00 0.00 0.00 48 1016.2
20260906024516 20 100 0.0 0.0 0.00 0.00 0.00 47 1016.2
20260906023024 20 100 0.0 0.0 0.00 0.00 0.00 48 1016.0
20260906021532 20 100 0.0 0.0 0.00 0.00 0.00 47 1015.9
20260906020040 21 100 0.0 0.0 0.00 0.00 0.00 46 1016.0
20260906014504 21 100 0.0 0.0 0.00 0.00 0.00 47 1015.9
20260906013003 21 100 0.0 0.0 0.00 0.00 0.00 46 1015.9
20260906011510 22 100 0.0 0.0 0.00 0.00 0.00 44 1016.0
20260906010008 22 100 0.0 1.6 0.00 0.00 0.00 42 1015.9
20260906004512 22 94 0.0 1.6 0.00 0.00 0.00 42 1016.1
20260906003003 22 158 0.0 0.0 0.00 0.00 0.00 43 1016.1
20260906001503 22 158 0.0 4.8 0.00 0.00 0.00 41 1016.2
20260906000004 23 139 0.0 3.2 0.00 0.00 0.00 43 1016.2
20260905234508 23 129 0.0 3.2 0.00 0.00 0.00 43 1016.2
20260905233018 23 135 0.0 1.6 0.00 0.00 0.00 44 1016.3
20260905231506 23 186 0.0 4.8 0.00 0.00 0.00 43 1016.2
20260905230003 23 80 0.0 0.0 0.00 0.00 0.00 40 1016.3
20260905224507 23 327 0.0 0.0 0.00 0.00 0.00 43 1016.4
20260905223025 23 138 0.0 0.0 0.00 0.00 0.00 43 1016.4
20260905221510 23 126 0.0 0.0 0.00 0.00 0.00 41 1016.4
20260905220005 23 122 0.0 0.0 0.00 0.00 0.00 44 1016.4
20260905214508 23 343 0.0 0.0 0.00 0.00 0.00 45 1016.7
20260905213012 23 323 0.0 0.0 0.00 0.00 0.00 44 1017.0
20260905211533 23 337 0.0 0.0 0.00 0.00 0.00 45 1017.1
20260905210011 23 302 0.0 0.0 0.00 0.00 0.00 44 1017.2
20260905204503 23 344 0.0 1.6 0.00 0.00 0.00 44 1017.2
20260905203010 23 168 0.0 0.0 0.00 0.00 0.00 45 1017.2
20260905201516 22 304 0.0 0.0 0.00 0.00 0.00 46 1017.3
20260905200030 22 279 0.0 3.2 0.00 0.00 0.00 48 1017.4
20260905194517 21 333 0.0 1.6 0.00 0.00 0.00 49 1017.6
20260905193008 20 215 0.0 0.0 0.00 0.00 0.00 51 1017.8
20260905191511 20 151 0.0 0.0 0.00 0.00 0.00 54 1017.8
20260905190024 20 322 0.0 0.0 0.00 0.00 0.00 56 1017.9
20260905184534 18 305 0.0 0.0 0.00 0.00 0.00 58 1018.0
20260905183028 18 308 0.0 0.0 0.00 0.00 0.00 56 1018.1
20260905181514 18 320 0.0 0.0 0.00 0.00 0.00 56 1018.3
20260905180016 18 320 0.0 0.0 0.00 0.00 0.00 60 1018.5
20260905174516 17 63 0.0 0.0 0.00 0.00 0.00 61 1018.6
20260905173029 17 330 0.0 0.0 0.00 0.00 0.00 63 1018.7
20260905171542 16 324 0.0 1.6 0.00 0.00 0.00 63 1018.5
20260905170017 16 324 0.0 0.0 0.00 0.00 0.00 64 1018.5
20260905164504 16 314 0.0 0.0 0.00 0.00 0.00 65 1018.4
20260905163003 16 314 0.0 0.0 0.00 0.00 0.00 65 1018.3
20260905161508 15 314 0.0 1.6 0.00 0.00 0.00 66 1018.1
20260905160026 15 296 0.0 1.6 0.00 0.00 0.00 67 1017.8
20260905154532 15 295 0.0 3.2 0.00 0.00 0.00 68 1017.8
20260905153012 14 161 0.0 0.0 0.00 0.00 0.00 69 1017.8
20260905151506 13 161 0.0 0.0 0.00 0.00 0.00 71 1018.1
20260905150005 13 161 0.0 0.0 0.00 0.00 0.00 73 1018.1
20260905144523 13 161 0.0 0.0 0.00 0.00 0.00 76 1018.0
20260905143024 12 161 0.0 0.0 0.00 0.00 0.00 75 1017.9
20260905141522 12 161 0.0 0.0 0.00 0.00 0.00 73 1017.9
20260905140008 12 161 0.0 0.0 0.00 0.00 0.00 71 1017.8
20260905134512 12 161 0.0 0.0 0.00 0.00 0.00 71 1017.8
20260905133022 12 161 0.0 0.0 0.00 0.00 0.00 69 1017.4
20260905131531 12 161 0.0 0.0 0.00 0.00 0.00 69 1017.4
20260905130027 12 161 0.0 0.0 0.00 0.00 0.00 70 1017.3
20260905124519 12 161 0.0 0.0 0.00 0.00 0.00 70 1017.2
20260905123018 12 161 0.0 0.0 0.00 0.00 0.00 71 1017.3
20260905121518 13 161 0.0 0.0 0.00 0.00 0.00 73 1017.0
20260905120032 13 161 0.0 0.0 0.00 0.00 0.00 73 1017.0
20260905114531 13 161 0.0 0.0 0.00 0.00 0.00 69 1016.7
20260905113019 13 161 0.0 0.0 0.00 0.00 0.00 69 1016.5
20260905111523 13 161 0.0 0.0 0.00 0.00 0.00 69 1016.5
20260905110028 13 161 0.0 0.0 0.00 0.00 0.00 68 1016.4
20260905104525 13 161 0.0 0.0 0.00 0.00 0.00 67 1016.4
20260905103036 13 161 0.0 0.0 0.00 0.00 0.00 66 1016.5
20260905101502 13 161 0.0 0.0 0.00 0.00 0.00 65 1016.4
20260905100003 14 161 0.0 0.0 0.00 0.00 0.00 64 1016.5
20260905094506 14 161 0.0 0.0 0.00 0.00 0.00 62 1016.5
20260905093003 14 161 0.0 0.0 0.00 0.00 0.00 62 1016.5
20260905091504 14 173 0.0 0.0 0.00 0.00 0.00 63 1016.5
20260905090004 14 329 0.0 0.0 0.00 0.00 0.00 63 1016.3
20260905084506 14 329 0.0 0.0 0.00 0.00 0.00 63 1016.1
20260905083012 15 329 0.0 0.0 0.00 0.00 0.00 62 1016.1
20260905081509 15 329 0.0 0.0 0.00 0.00 0.00 61 1016.0
20260905080003 15 329 0.0 0.0 0.00 0.00 0.00 61 1015.8
20260905074504 15 329 0.0 0.0 0.00 0.00 0.00 61 1015.7
20260905073010 15 329 0.0 1.6 0.00 0.00 0.00 61 1015.6
20260905071515 15 344 0.0 1.6 0.00 0.00 0.00 61 1015.6
20260905070015 15 291 0.0 0.0 0.00 0.00 0.00 62 1015.5
20260905064504 14 239 0.0 0.0 0.00 0.00 0.00 63 1015.4
20260905063004 14 239 0.0 0.0 0.00 0.00 0.00 63 1015.3
20260905061507 15 229 0.0 1.6 0.00 0.00 0.00 63 1015.2
20260905060004 15 49 0.0 0.0 0.00 0.00 0.00 62 1015.1
20260905054524 15 49 0.0 0.0 0.00 0.00 0.00 61 1015.1
20260905053004 15 49 0.0 1.6 0.00 0.00 0.00 59 1015.0
20260905051508 15 17 0.0 0.0 0.00 0.00 0.00 58 1014.8